Regional Weather Roundup
Issued by NWS

Home | Current Version | Previous Version | Graphics & Text | Print | Product List | Glossary On
Versions: 1 2 3 4 5 6 7 8 9 10 11 12 13 14 15 16 17 18 19 20 21 22 23 24 25 26 27 28 29 30 31 32 33 34 35 36 37 38 39 40 41 42 43 44 45 46 47 48 49 50
000
ASUS43 KOAX 280410
RWRNE

WEATHER ROUNDUP FOR NEBRASKA
NATIONAL WEATHER SERVICE OMAHA NE
1100 PM CDT SAT MAY 27 2017

NOTES: SATELLITE DATA IS BEING USED TO AUGMENT CLOUD COVER ABOVE
       12000 FEET.
       "FAIR" INDICATES FEW OR NO CLOUDS BELOW 12,000 FEET WITH NO
       SIGNIFICANT WEATHER AND/OR OBSTRUCTIONS TO VISIBILITY.

  * THESE STATIONS DO NOT REPORT WEATHER SUCH AS RAIN...SNOW OR FOG.

NEZ001>004-019>022-054>056-280500-
NEBRASKA PANHANDLE

CITY           SKY/WX    TMP DP  RH WIND       PRES   REMARKS
SCOTTSBLUFF    CLEAR     49  43  80 NW5       30.14R
ALLIANCE       CLEAR     44  41  89 W7        30.11R
CHADRON        PTCLDY    52  43  71 SW3       30.08R
GORDON         CLOUDY    56  44  65 W9        30.07R
KIMBALL        CLEAR     46  41  81 W7        30.19R
SIDNEY         CLEAR     42  39  89 W9        30.15R
$$

NEZ057>060-069>072-079>082-280500-
SOUTHWEST NEBRASKA

CITY           SKY/WX    TMP DP  RH WIND       PRES   REMARKS
NORTH PLATTE   CLEAR     50  47  89 CALM      30.08R
IMPERIAL       CLEAR     54  47  77 W6        30.12R
LEXINGTON      PTCLDY    53  50  88 W6        30.06S
MCCOOK         PTCLDY    54  51  90 NW8       30.08R
OGALLALA       CLEAR     50  45  83 SW3       30.11R
$$

NEZ005>010-023>029-035>040-094-280500-
NORTH CENTRAL NEBRASKA

CITY           SKY/WX    TMP DP  RH WIND       PRES   REMARKS
VALENTINE      CLOUDY    58  44  60 W8        30.00R
AINSWORTH      CLEAR     52  48  86 SW6       30.01R
BROKEN BOW     CLEAR     53  50  89 CALM      30.04R
O`NEILL        PTCLDY    53  50  89 SW5       29.98R
ORD            PTCLDY    54  50  86 SW7       30.01R
THEDFORD       CLEAR     53  46  75 W5        30.05R
$$

NEZ041-046>049-061>064-073>077-083>087-280500-
SOUTH CENTRAL NEBRASKA

CITY           SKY/WX    TMP DP  RH WIND       PRES   REMARKS
GRAND ISLAND   PTCLDY    58  53  84 NW8       30.01R
AURORA         CLEAR     59  52  76 NW8       30.00R
HASTINGS       CLEAR     60  52  74 NW6       30.02R
HEBRON         PTCLDY    63  56  78 NW8       29.97R
HOLDREGE       CLOUDY    57  51  81 NW5       30.05S
KEARNEY *      CLOUDY    59  48  67 NW9       30.04R
YORK           PTCLDY    61  52  72 NW13      29.98R
$$

NEZ011>018-030>034-042>045-280500-
NORTHEAST NEBRASKA

CITY           SKY/WX    TMP DP  RH WIND       PRES   REMARKS
NORFOLK        PTCLDY    53  49  86 W6        29.97R
ALBION         MOCLDY    55  50  83 NW3       30.00R
BLAIR          CLEAR     62  54  76 NW8       29.93R
FREMONT        MOCLDY    61  52  71 CALM      29.94R
TEKAMAH        PTCLDY    61  51  70 N7        29.92R
WAYNE          CLEAR     55  52  90 W3        29.96R
$$

NEZ050>053-065>068-078-088>093-280500-
SOUTHEAST NEBRASKA

CITY           SKY/WX    TMP DP  RH WIND       PRES   REMARKS
LINCOLN        CLEAR     64  58  80 NW7       29.94R
OMAHA EPPLEY   PTCLDY    63  54  72 SE3       29.91R
BEATRICE       CLEAR     61  58  90 CALM      29.93R
FALLS CITY     CLEAR     61  59  93 NW7       29.89R
NEBRASKA CITY  CLOUDY    63  56  77 CALM      29.91R
PLATTSMOUTH    CLEAR     63  55  75 CALM      29.91S
$$

NEZ044-045-051>053-067-280500-
OMAHA AREA

CITY           SKY/WX    TMP DP  RH WIND       PRES   REMARKS
OMAHA EPPLEY   PTCLDY    63  54  72 SE3       29.91R
BLAIR          CLEAR     62  54  76 NW8       29.93R
FREMONT        MOCLDY    61  52  71 CALM      29.94R
MILLARD        CLEAR     61  57  86 CALM      29.92R
OFFUTT AFB     CLEAR     57  55  91 NW5       29.90R
PLATTSMOUTH    CLEAR     63  55  75 CALM      29.91S
WAHOO          FAIR      60  52  73 N6        29.94R
$$




USA.gov is the U.S. government's official web portal to all federal, state and local government web resources and services.